{"data":{"norad_id":44930,"intl_designator":"2020-001S","name":"STARLINK-1123","alt_names":[],"object_type":"PAYLOAD","status":"ACTIVE","operator":null,"country":"US","launch_date":"2020-01-07","launch_site_code":"AFETR","launch_vehicle":null,"mission":null,"orbit_class":"UNKNOWN","rcs_meters":null,"size_class":null,"mass_kg":null,"dimensions":null,"purposes":["comms"],"wikipedia_slug":null,"has_3d_model":false,"image_url":null,"decayed_at":null,"tle_current":{"epoch":"2026-09-20T04:08:08.741760Z","epoch_age_seconds":42568,"freshness":"FRESH","line1":"1 44930U 20001S   26263.17232340  .00046330  00000+0  35035-3 0  9998","line2":"2 44930  53.1360 127.2953 0001284 195.4613 164.6367 15.71977981370124","mean_motion":15.71977981,"eccentricity":0.0001284,"inclination_deg":53.136,"raan_deg":127.2953,"arg_perigee_deg":195.4613,"mean_anomaly_deg":164.6367,"bstar":0.00035035,"rev_number":37012,"period_min":91.604336536823,"perigee_km":352.38015182554,"apogee_km":354.10877058478,"semimajor_km":6731.3814612052,"source":"CELESTRAK","updated_at":"2026-09-20T09:00:38.221182Z"}}}